This demonstration page uses our WeatherBlox Daily Observations layout. Learn more.

Left ArrowRight Arrow

Hourly Observations for May 18, 2018

Temp ( °F °C ) Dew Point ( °F °C ) Humidity (%) Winds ( mph kmh ) Pressure ( in mb ) Visibility ( mi km ) Precip ( " mm )
12:15 am 00:15 Clear 69 20.4 54 12.1 59 59 SE 17 28 29.74 1007 10 16 N/A
12:35 am 00:35 Clear 68 20 55 12.5 62 62 SE 16 26 29.74 1007 10 16 N/A
12:55 am 00:55 Clear 67 19.5 55 12.5 64 64 SE 15 24 29.74 1007 10 16 N/A
1:15 am 01:15 Clear 67 19.5 55 12.7 65 65 SE 16 26 29.74 1007 10 16 N/A
1:35 am 01:35 Clear 67 19.2 55 12.7 66 66 SE 14 22 29.74 1007 10 16 N/A
1:55 am 01:55 Clear 67 19.2 55 12.8 67 67 SE 12 19 29.77 1008 10 16 N/A
2:15 am 02:15 Clear 65 18.6 55 12.8 69 69 SE 14 22 29.77 1008 10 16 N/A
2:35 am 02:35 Clear 66 18.7 55 12.9 69 69 SE 12 19 29.80 1009 10 16 N/A
2:55 am 02:55 Partly Cloudy 65 18.4 55 12.8 70 70 SE 10 17 29.80 1009 10 16 N/A
3:15 am 03:15 Partly Cloudy 64 18 55 12.8 72 72 SE 12 19 29.83 1010 10 16 N/A
3:35 am 03:35 Mostly Cloudy 65 18.3 56 13.1 72 72 SE 15 24 29.77 1008 10 16 N/A
3:55 am 03:55 Cloudy 65 18.4 56 13.5 73 73 SE 14 22 29.77 1008 10 16 N/A
4:15 am 04:15 Cloudy 65 18.3 57 13.7 75 75 SSE 15 24 29.77 1008 10 16 N/A
4:35 am 04:35 Mostly Cloudy with Nearby Thunderstorms 65 18.3 57 14 76 76 SE 15 24 29.77 1008 10 16 N/A
4:55 am 04:55 Mostly Cloudy 65 18.1 57 14.1 78 78 SW 3 6 29.85 1011 10 16 N/A
5:15 am 05:15 Cloudy with Thunderstorms 64 17.6 56 13.3 76 76 N 7 11 29.85 1011 10 16 N/A
5:35 am 05:35 Mostly Cloudy with Nearby Thunderstorms 63 17.2 57 14 82 82 ENE 6 9 29.83 1010 10 16 N/A
5:55 am 05:55 Mostly Cloudy with Nearby Thunderstorms 63 17.1 58 14.4 84 84 N 3 6 29.85 1011 10 16 N/A
6:15 am 06:15 Cloudy 63 17.1 58 14.5 85 85 NNE 5 7 29.85 1011 10 16 N/A
6:35 am 06:35 Mostly Cloudy 62 16.5 59 15 91 91 NE 7 11 29.83 1010 10 16 0.02 0.51
6:55 am 06:55 Cloudy with Rain 61 16.3 59 15.1 93 93 N 12 19 29.85 1011 7 11 0.05 1.27
7:15 am 07:15 Cloudy with Strong Thunderstorms 57 14 57 14 100 100 N 21 33 29.91 1013 4 6 0.17 4.32
7:35 am 07:35 Cloudy with Nearby Thunderstorms 56 13.2 56 13.2 100 100 N 28 44 29.91 1013 5 8 0.23 5.84
7:55 am 07:55 Cloudy with Strong Thunderstorms 56 13.2 56 13.2 100 100 N 21 33 29.94 1014 4 6 0.36 9.14
8:15 am 08:15 Cloudy 56 13.5 56 13.5 100 100 NNE 18 30 29.94 1014 5 8 0.08 2.03
8:35 am 08:35 Cloudy with Thunderstorms 56 13.6 56 13.5 99 99 NNE 25 41 29.91 1013 5 8 0.15 3.81
8:55 am 08:55 Cloudy with Rain 56 13.6 56 13.5 99 99 ENE 26 43 29.88 1012 7 11 0.22 5.59
9:15 am 09:15 Cloudy with Nearby Thunderstorms 56 13.6 56 13.5 99 99 E 30 48 29.85 1011 7 11 0.03 0.76
9:35 am 09:35 Partly Cloudy with Light Rain 57 13.7 56 13.5 99 99 E 33 54 29.80 1009 10 16 0.04 1.02
9:55 am 09:55 Partly Cloudy 58 14.3 56 13.5 95 95 E 25 41 29.77 1008 10 16 0.04 1.02
10:15 am 10:15 Sunny 58 14.5 56 13.6 94 94 E 21 33 29.77 1008 10 16 N/A
10:35 am 10:35 Sunny 59 14.8 57 14 95 95 E 20 31 29.77 1008 10 16 N/A
10:55 am 10:55 Partly Cloudy 59 15.1 58 14.4 96 96 ESE 23 37 29.80 1009 10 16 N/A
11:15 am 11:15 Partly Cloudy with Nearby Thunderstorms 60 15.8 59 14.8 94 94 ESE 21 33 29.80 1009 10 16 N/A
11:35 am 11:35 Sunny 61 16 59 14.8 93 93 ESE 23 37 29.80 1009 10 16 N/A
11:55 am 11:55 Partly Cloudy 63 17.1 60 15.3 89 89 ESE 23 37 29.80 1009 10 16 N/A
12:15 pm 12:15 Partly Cloudy 65 18.2 60 15.3 83 83 SE 24 39 29.74 1007 10 16 N/A
12:35 pm 12:35 Mostly Cloudy with Nearby Thunderstorms 67 19.5 59 15.1 76 76 SE 26 43 29.77 1008 10 16 N/A
12:55 pm 12:55 Cloudy with Nearby Thunderstorms 67 19.2 60 15.6 80 80 SE 25 41 29.77 1008 10 16 N/A
1:15 pm 13:15 Cloudy 66 19 60 15.4 80 80 SE 28 44 29.77 1008 10 16 N/A
1:35 pm 13:35 Cloudy 67 19.3 60 15.5 79 79 SE 28 44 29.77 1008 10 16 N/A
1:55 pm 13:55 Cloudy 67 19.2 60 15.8 81 81 SE 18 30 29.77 1008 10 16 N/A
2:15 pm 14:15 Cloudy 66 18.8 60 15.5 81 81 SE 18 30 29.80 1009 10 16 N/A
2:35 pm 14:35 Cloudy 67 19.2 61 16 82 82 SE 17 28 29.80 1009 10 16 N/A
2:55 pm 14:55 Cloudy 67 19.6 61 16.2 81 81 SE 16 26 29.80 1009 10 16 N/A
3:15 pm 15:15 Cloudy 68 20.1 62 16.5 80 80 SE 13 20 29.80 1009 10 16 N/A
3:35 pm 15:35 Cloudy 69 20.6 62 16.5 77 77 SE 14 22 29.80 1009 10 16 N/A
3:55 pm 15:55 Cloudy 70 21 61 16.2 74 74 SE 14 22 29.77 1008 10 16 N/A
4:15 pm 16:15 Cloudy 70 21.3 61 16 72 72 SE 16 26 29.80 1009 10 16 N/A
4:35 pm 16:35 Cloudy 71 21.5 61 16.1 71 71 SE 10 17 29.80 1009 10 16 N/A
4:55 pm 16:55 Cloudy 70 21 61 16.1 74 74 ESE 10 17 29.80 1009 10 16 N/A
5:15 pm 17:15 Cloudy 70 21.2 62 16.4 74 74 E 8 13 29.80 1009 10 16 N/A
5:35 pm 17:35 Cloudy 70 21.1 62 16.4 75 75 E 7 11 29.80 1009 10 16 N/A
5:55 pm 17:55 Cloudy 70 21 63 17 78 78 NE 12 19 29.80 1009 10 16 N/A
6:15 pm 18:15 Cloudy 68 19.9 64 17.6 87 87 NE 13 20 29.80 1009 10 16 N/A
6:35 pm 18:35 Cloudy 67 19.5 64 17.5 88 88 NE 15 24 29.80 1009 10 16 N/A
6:55 pm 18:55 Cloudy 67 19.6 64 17.5 88 88 NE 16 26 29.77 1008 10 16 N/A
7:15 pm 19:15 Cloudy 67 19.2 63 17 87 87 NE 17 28 29.77 1008 10 16 N/A
7:35 pm 19:35 Cloudy 65 18.6 62 16.8 89 89 ENE 17 28 29.77 1008 10 16 N/A
7:55 pm 19:55 Cloudy 64 17.9 61 15.9 88 88 NE 15 24 29.80 1009 10 16 N/A
8:15 pm 20:15 Cloudy 63 17.3 59 15.2 88 88 NE 13 20 29.77 1008 10 16 N/A
8:35 pm 20:35 Cloudy 63 17.1 60 15.5 90 90 NE 18 30 29.77 1008 10 16 N/A
8:55 pm 20:55 Partly Cloudy 62 16.7 60 15.8 94 94 NE 13 20 29.77 1008 10 16 N/A
9:15 pm 21:15 Partly Cloudy 62 16.6 61 16.1 97 97 NE 13 20 29.80 1009 10 16 N/A
9:35 pm 21:35 Mostly Cloudy 63 17 61 16 94 94 NE 14 22 29.80 1009 10 16 N/A
9:55 pm 21:55 Cloudy 63 17 60 15.8 93 93 NE 14 22 29.83 1010 10 16 N/A
10:15 pm 22:15 Cloudy with Nearby Thunderstorms 63 17 60 15.8 93 93 NNW 12 19 29.85 1011 7 11 0.01 0.25
10:35 pm 22:35 Cloudy 62 16.7 60 15.7 94 94 NE 13 20 29.88 1012 3 5 0.37 9.40
10:55 pm 22:55 Cloudy 62 16.9 60 15.3 90 90 ESE 13 20 29.85 1011 4 6 0.61 15.49
11:15 pm 23:15 Cloudy with Strong Thunderstorms 62 16.5 59 15.2 92 92 S 10 17 29.88 1012 3 5 0.21 5.33
11:35 pm 23:35 Cloudy with Nearby Thunderstorms 61 16.2 60 15.6 96 96 SSE 10 17 29.88 1012 10 16 0.25 6.35
11:55 pm 23:55 Cloudy with Nearby Thunderstorms 62 16.5 59 15.2 92 92 SE 9 15 29.88 1012 10 16 0.28 7.11

Powered by AerisWeather